{"data":{"norad_id":68250,"intl_designator":"2026-054U","name":"STARLINK-37087","alt_names":[],"object_type":"PAYLOAD","status":"ACTIVE","operator":null,"country":"US","launch_date":"2026-03-17","launch_site_code":"AFETR","launch_vehicle":null,"mission":null,"orbit_class":"UNKNOWN","rcs_meters":null,"size_class":null,"mass_kg":null,"dimensions":null,"purposes":["comms"],"wikipedia_slug":null,"has_3d_model":false,"image_url":null,"decayed_at":null,"tle_current":{"epoch":"2026-09-19T23:59:16.267776Z","epoch_age_seconds":94908,"freshness":"FRESH","line1":"1 68250U 26054U   26262.99949384  .00016287  00000+0  49190-3 0  9990","line2":"2 68250  53.1577 104.2395 0000878  57.6222 302.4865 15.34413872 28884","mean_motion":15.34413872,"eccentricity":8.78e-5,"inclination_deg":53.1577,"raan_deg":104.2395,"arg_perigee_deg":57.6222,"mean_anomaly_deg":302.4865,"bstar":0.0004919,"rev_number":2888,"period_min":93.846909642642,"perigee_km":462.06138785726,"apogee_km":463.26263216342,"semimajor_km":6840.7990100103,"source":"CELESTRAK","updated_at":"2026-09-20T09:00:43.843142Z"}}}